weather.gov     
National Weather Service

Weather Roundup
NWS Homepage
This page is being discontinued on March 12, 2014.
The same data is available at this site. Please update your bookmarks.
Thank you, and we apologize for the inconvenience.
Please send an email to SR-SRH.Webmaster@noaa.gov with any concerns.


Current Version
Previous Version:    01  02  03  04  05  06  07  08  09  10  11  12  13  14  15  16  17  18  19  20  21  22  23  24  25  26  27  28  29  30  
   31  32  33  34  35  36  37  38  39  40  41  42  43  44  45  46  47  48  49  50  51  52  53  54  55  56  57  58  59  60  
[Printable]
080
NZUS99 KSGF 180007
HRRSGF

HOURLY WEATHER
NATIONAL WEATHER SERVICE SPRINGFIELD MO
700 PM CDT THU APR 17 2014

......SGF CWA......

CITY           SKY/WX    TMP DP  RH WIND       PRES   REMARKS
SPRINGFIELD    CLOUDY    58  41  53 N14       30.21F
6HR MIN TEMP:  58; 6HR MAX TEMP:  64;

JOPLIN         CLOUDY    54  40  59 N9        30.24F
6HR MIN TEMP:  54; 6HR MAX TEMP:  60;

WEST PLAINS    PTCLDY    63  35  35 CALM      30.20S
6HR MIN TEMP:  62; 6HR MAX TEMP:  67;

ROLLA          MOCLDY    56  42  59 N8        30.21S
6HR MIN TEMP:  56; 6HR MAX TEMP:  63;

OSAGE BEACH    CLOUDY    54  37  54 NW7       30.27R
BRANSON        MOCLDY    64  32  29 N5        30.19S

......SURROUNDING SGF CWA......

CITY           SKY/WX    TMP DP  RH WIND       PRES   REMARKS
CHANUTE        CLOUDY    47  35  63 N5        30.29S
PARSONS        LGT RAIN  48  39  71 N8        30.28S
COFFEYVILLE    LGT RAIN  48  41  76 N9        30.27R
EMPORIA        CLOUDY    46  33  60 E7        30.26S HAZE
GROVE OK       PTSUNNY   59  41  51 N7        30.24S
ROGERS AR      CLOUDY    60  40  47 N7        30.21R
SILOAM SPRINGS CLOUDY    59  39  47 NW16      30.22R
HARRISON AR    PTCLDY    62  33  33 NE8       30.17S
NEAR YELLVILLE PTCLDY    66  34  30 NE5       30.17S

......KANSAS AND MISSOURI......

CITY           SKY/WX    TMP DP  RH WIND       PRES   REMARKS
KANSAS CTY INT MOSUNNY   49  32  52 SE5       30.27S
DOWNTOWN KC    MOSUNNY   50  32  50 CALM      30.27F
COLUMBIA       CLOUDY    50  39  66 NW8       30.26F
SEDALIA        LGT RAIN  47  41  80 NW3       30.29S
ST JOSEPH      SUNNY     54  31  41 SE8       30.26S
ST LOUIS       MOCLDY    62  39  42 N8        30.23S
SPIRIT OF STL  MOCLDY    61  39  44 N7        30.22S
KIRKSVILLE     CLOUDY    50  34  54 S7        30.27S
WICHITA        MOSUNNY   51  37  58 SE7       30.23F
TOPEKA         MOSUNNY   53  33  46 E3        30.26F
OLATHE         PTSUNNY   46  34  62 CALM      30.27S

......TENNESSEE......

CITY           SKY/WX    TMP DP  RH WIND       PRES   REMARKS
MEMPHIS        MOCLDY    68  39  34 SE7       30.20R
NASHVILLE      MOCLDY    63  37  38 S5        30.26S

......ARKANSAS.......

CITY           SKY/WX    TMP DP  RH WIND       PRES   REMARKS
FAYETTEVILLE   CLOUDY    62  39  42 NW7       30.19R
FT SMITH       CLOUDY    67  42  40 N5        30.17R
LITTLE ROCK    MOCLDY    65  43  44 SE9       30.18S

......OKLAHOMA.......

CITY           SKY/WX    TMP DP  RH WIND       PRES   REMARKS
TULSA          CLOUDY    56  41  57 NE9       30.21F
PONCA CITY     PTSUNNY   52  38  58 E8        30.24F
MCALESTER      CLOUDY    63  42  46 NE8       30.17F
OKLAHOMA CITY  LGT RAIN  57  39  51 NE12      30.20S

......IOWA............

CITY           SKY/WX    TMP DP  RH WIND       PRES   REMARKS
DES MOINES     PTCLDY    55  28  35 NE5       30.25S
QUAD CITIES    MOCLDY    53  34  48 SW3       30.24R HAZE

......ILLINOIS........

CITY           SKY/WX    TMP DP  RH WIND       PRES   REMARKS
QUINCY         LGT RAIN  50  37  61 NW7       30.27S
CHICAGO        CLOUDY    57  36  45 W12       30.20S





U.S. Dept. of Commerce
NOAA National Weather Service
1325 East West Highway
Silver Spring, MD 20910
E-mail: w-nws.webmaster@noaa.gov
Page last modified: May 16, 2007
NATIONAL WEATHER SERVICE: for Safety, for Work, for Fun - FOR LIFE